Weather History for Sault Ste Marie, MI

Change the Weather History Date:

Sunday, May 12, 2013

  Actual Average Record
Temperature  
Mean Temperature 33 °F 51 °F  
Max Temperature 35 °F 62 °F 82 °F (1991)
Min Temperature 30 °F 40 °F 26 °F (1976)
Degree Days  
Heating Degree Days 32 14  
Month to date heating degree days 148 192  
Since 1 July heating degree days 7996 8261  
Cooling Degree Days 0 0  
Month to date cooling degree days 0 0  
Year to date cooling degree days 0 0  
Moisture  
Dew Point 28 °F    
Average Humidity 79    
Maximum Humidity 89    
Minimum Humidity 69    
Precipitation  
Precipitation 0.41 in 0.08 in 1.33 in (1978)
Month to date precipitation 0.97 0.93  
Year to date precipitation 12.78 8.80  
Sea Level Pressure  
Sea Level Pressure 29.79 in    
Wind  
Wind Speed 18 mph (NW)    
Max Wind Speed 31 mph    
Max Gust Speed 42 mph    
Visibility 4 miles    
Events Fog , Rain , Snow    
T = Trace of Precipitation, MM = Missing Value Source: NWS Daily Summary

Daily Weather History Graph

Daily Weather History Graph

Search for Another Location

Airport:

Trip Planner

Search our weather history database for the weather conditions in past years. The results will help you decide how hot, cold, wet, or windy it might be!

Date:

Astronomy

May. 12, 2013 Rise Set
Actual Time 6:07 AM EDT 9:01 PM EDT
Civil Twilight 5:32 AM EDT 9:36 PM EDT
Nautical Twilight 4:47 AM EDT 10:21 PM EDT
Astronomical Twilight 3:53 AM EDT 11:15 PM EDT
Moon 7:59 AM EDT (5/12) 11:29 PM EDT (5/12)
Length of Visible Light 16h 04m
Length of Day
14h 54m
Waxing Crescent, 6% of the Moon is Illuminated
May 12
Waxing Crescent
May 18
First Quarter
May 25
Full
May 31
Last Quarter
Jun 8
New

Hourly Weather History & Observations

Time (EDT) Temp. Windchill Dew Point Humidity Pressure Visibility Wind Dir Wind Speed Gust Speed Precip Events Conditions
12:55 AM 34.0 °F 24.6 °F 30.9 °F 89% 29.62 in 4.0 mi WNW 13.8 mph - 0.03 in Snow Light Snow
1:11 AM 34.0 °F 25.0 °F 30.9 °F 89% 29.61 in 2.5 mi WNW 12.7 mph - 0.00 in Snow Light Snow
1:26 AM 33.1 °F 23.9 °F 30.9 °F 92% 29.61 in 1.5 mi WNW 12.7 mph 17.3 mph 0.01 in Snow Light Snow
1:55 AM 34.0 °F 23.8 °F 30.9 °F 89% 29.62 in 3.0 mi NW 16.1 mph 27.6 mph 0.05 in Snow Light Snow
2:55 AM 34.0 °F 24.2 °F 30.9 °F 89% 29.61 in 4.0 mi NW 15.0 mph 24.2 mph 0.02 in Snow Light Snow
3:25 AM 34.0 °F 23.4 °F 30.9 °F 89% 29.62 in 2.5 mi NW 17.3 mph 23.0 mph 0.02 in Snow Light Snow
3:32 AM 34.0 °F 24.2 °F 30.9 °F 89% 29.63 in 2.5 mi NW 15.0 mph 21.9 mph 0.02 in Snow Light Snow
3:46 AM 34.0 °F 23.8 °F 30.9 °F 89% 29.64 in 1.5 mi NW 16.1 mph - 0.04 in Snow Light Snow
3:55 AM 34.0 °F 25.0 °F 30.9 °F 89% 29.65 in 2.0 mi NW 12.7 mph 24.2 mph 0.04 in Snow Light Snow
4:02 AM 33.1 °F 23.0 °F 30.9 °F 92% 29.62 in 1.8 mi NNW 15.0 mph 29.9 mph 0.01 in Snow Light Snow
4:55 AM 33.1 °F 21.5 °F 30.0 °F 89% 29.69 in 1.0 mi NW 19.6 mph 27.6 mph 0.07 in Snow Light Snow
5:06 AM 33.1 °F 22.6 °F 30.0 °F 89% 29.67 in 0.8 mi NW 16.1 mph 27.6 mph 0.02 in Snow Light Snow
5:18 AM 33.1 °F 22.2 °F 30.0 °F 89% 29.67 in 1.0 mi NW 17.3 mph 32.2 mph 0.03 in Snow Light Snow
5:34 AM 33.1 °F 21.2 °F 28.9 °F 85% 29.66 in 1.5 mi NW 20.7 mph 29.9 mph 0.03 in Snow Light Snow
5:37 AM 33.1 °F 21.2 °F 28.9 °F 85% 29.66 in 2.0 mi NNW 20.7 mph 29.9 mph 0.03 in Snow Light Snow
5:43 AM 33.1 °F 21.9 °F 28.0 °F 82% 29.66 in 4.0 mi NNW 18.4 mph 29.9 mph 0.03 in Snow Light Snow
5:55 AM 33.1 °F 22.6 °F 28.0 °F 82% 29.69 in 10.0 mi NW 16.1 mph 31.1 mph 0.03 in   Overcast
6:55 AM 33.1 °F 20.6 °F 26.1 °F 75% 29.72 in 10.0 mi NW 23.0 mph 35.7 mph 0.00 in   Partly Cloudy
7:55 AM 33.1 °F 20.3 °F 25.0 °F 72% 29.74 in 10.0 mi NW 24.2 mph 36.8 mph N/A   Overcast
8:45 AM 33.1 °F 19.8 °F 25.0 °F 72% 29.71 in 10.0 mi NW 26.5 mph 39.1 mph 0.00 in Rain Light Rain
8:55 AM 33.1 °F 20.6 °F 25.0 °F 72% 29.73 in 10.0 mi NW 23.0 mph 35.7 mph 0.00 in Rain Light Rain
9:30 AM 32.0 °F 19.2 °F 24.1 °F 73% 29.73 in 10.0 mi NW 23.0 mph 40.3 mph 0.00 in Rain Light Rain
9:47 AM 32.0 °F 19.8 °F 24.1 °F 73% 29.73 in 5.0 mi NW 20.7 mph 40.3 mph 0.00 in Snow Light Snow
9:55 AM 32.0 °F 19.2 °F 24.1 °F 73% 29.75 in 4.0 mi WNW 23.0 mph 42.6 mph 0.00 in Snow Light Snow
10:15 AM 32.0 °F 20.1 °F 25.0 °F 75% 29.73 in 2.0 mi NW 19.6 mph 34.5 mph 0.00 in Snow Light Snow
10:23 AM 32.0 °F 20.5 °F 25.0 °F 75% 29.73 in 1.5 mi NW 18.4 mph 38.0 mph 0.00 in Snow Light Snow
10:53 AM 30.2 °F 16.5 °F 24.8 °F 80% 29.75 in 0.8 mi WNW 24.2 mph 40.3 mph 0.01 in Snow Light Snow
10:55 AM 30.9 °F 16.7 °F 24.1 °F 76% 29.77 in 0.5 mi NW 27.6 mph 40.3 mph 0.01 in Snow Snow
11:24 AM 30.0 °F 17.2 °F 25.0 °F 82% 29.75 in 0.2 mi WNW 20.7 mph 34.5 mph 0.01 in Snow Heavy Snow
11:55 AM 30.0 °F 16.6 °F 26.1 °F 85% 29.79 in 0.2 mi WNW 23.0 mph 35.7 mph 0.03 in Fog , Snow Heavy Snow
12:55 PM 30.0 °F 16.9 °F 26.1 °F 85% 29.80 in 0.2 mi WNW 21.9 mph 41.4 mph 0.05 in Fog , Snow Snow
1:55 PM 30.9 °F 17.2 °F 27.0 °F 85% 29.85 in 0.5 mi NW 25.3 mph 34.5 mph 0.02 in Fog , Snow Snow
2:16 PM 30.9 °F 19.8 °F 28.0 °F 89% 29.83 in 0.2 mi WNW 16.1 mph 27.6 mph 0.01 in Fog , Snow Heavy Snow
2:55 PM 32.0 °F 20.5 °F 28.0 °F 85% 29.87 in 0.5 mi WNW 18.4 mph 32.2 mph 0.04 in Fog , Snow Snow
3:55 PM 32.0 °F 20.8 °F 28.0 °F 85% 29.89 in 0.5 mi NW 17.3 mph 29.9 mph 0.02 in Fog , Snow Snow
4:11 PM 33.1 °F 22.2 °F 28.9 °F 85% 29.88 in 1.0 mi NW 17.3 mph 33.4 mph 0.01 in Snow Light Snow
4:55 PM 33.1 °F 22.6 °F 28.9 °F 85% 29.92 in 1.0 mi WNW 16.1 mph 26.5 mph 0.01 in Snow Light Snow
5:16 PM 33.1 °F 21.5 °F 28.9 °F 85% 29.90 in 0.8 mi WNW 19.6 mph 26.5 mph 0.00 in Snow Light Snow
5:34 PM 33.1 °F 21.2 °F 28.9 °F 85% 29.91 in 1.2 mi NW 20.7 mph 29.9 mph 0.01 in Snow Light Snow
5:48 PM 33.1 °F 22.6 °F 28.9 °F 85% 29.92 in 2.0 mi WNW 16.1 mph 31.1 mph 0.01 in Snow Light Snow
5:55 PM 33.1 °F 23.0 °F 28.9 °F 85% 29.94 in 1.8 mi WNW 15.0 mph 27.6 mph 0.01 in Snow Light Snow
6:38 PM 33.1 °F 23.4 °F 28.9 °F 85% 29.94 in 1.0 mi WNW 13.8 mph 31.1 mph 0.00 in Snow Light Snow
6:55 PM 33.1 °F 22.6 °F 28.9 °F 85% 29.96 in 1.2 mi WNW 16.1 mph 25.3 mph 0.01 in Snow Light Snow
7:09 PM 34.0 °F 23.4 °F 28.9 °F 82% 29.93 in 2.0 mi WNW 17.3 mph 27.6 mph 0.00 in Snow Light Snow
7:19 PM 34.0 °F 22.7 °F 28.9 °F 82% 29.93 in 5.0 mi WNW 19.6 mph 25.3 mph 0.00 in Snow Light Snow
7:36 PM 35.1 °F 24.5 °F 27.0 °F 72% 29.94 in 9.0 mi WNW 18.4 mph 26.5 mph 0.00 in   Overcast
7:55 PM 35.1 °F 25.2 °F 26.1 °F 70% 29.97 in 10.0 mi WNW 16.1 mph 26.5 mph 0.00 in Rain Light Rain
8:55 PM 35.1 °F 25.9 °F 28.0 °F 76% 29.98 in 8.0 mi WNW 13.8 mph 23.0 mph 0.00 in Snow Light Snow
9:55 PM 35.1 °F 26.9 °F 27.0 °F 72% 29.98 in 10.0 mi WNW 11.5 mph 20.7 mph 0.00 in   Overcast
10:55 PM 35.1 °F 25.9 °F 27.0 °F 72% 29.99 in 10.0 mi WNW 13.8 mph - 0.00 in   Overcast
11:55 PM 35.1 °F 27.4 °F 28.0 °F 76% 29.99 in 10.0 mi WNW 10.4 mph - N/A   Overcast